sat.trackr.live / text

‹ back to catalog

STARLINK-5440

NORAD 54785 · 2022-175AD

PAYLOAD ACTIVE UNKNOWN

§ Identity

Operator
Country
US
Launch date
2022-12-17
Launch site
AFETR
Launch vehicle
Mass (kg)
RCS (m²)

Purposes: comms

External: N2YO · Heavens-Above · Gunter

§ Orbital elements

Epoch: 2026-05-25T00:08:16.914048Z

Period
95.44 min
Inclination
53.2149°
Eccentricity
0.0001340
Mean motion
15.08841909 rev/d
Perigee alt
538.8 km
Apogee alt
540.7 km
Semi-major
6,917.9 km
B*
1.3344e-5
RAAN
6.3948°
Arg perigee
91.0103°
Mean anomaly
269.1043°
Rev number
19,221

§ Raw data

STARLINK-54401 54785U 22175AD  26145.00575132 -.00000076  00000+0  13344-4 0  99992 54785  53.2149   6.3948 0001340  91.0103 269.1043 15.08841909192212

JSON: /api/v1/satellites/54785 · /tle

For live sub-satellite position, see the globe view (requires WebGL).

§ Visibility from observer

Set your observer location to see the next 7 days of passes ≥ 10°. The values pass through the URL so the page stays shareable.

No JS? Fill the form by hand. The geolocation button needs JavaScript.